Location: Arundel
(45.9667°N, 74.6189°W)
Time: 13:28:55
(UTC+00:00)

N. Korean satellite - Pass Details

Date: 07 December 2022
Orbit: 407 x 441 km, 97.3° (Epoch: 05 February)

Event Time Altitude Azimuth Distance (km) Brightness Sun altitude
Rises 10:47:16 0° 6° (N) 2,514 10.1 -16.5°
Reaches altitude 10° 10:49:25 10° 359° (N) 1,626 9.0 -16.1°
Maximum altitude 10:52:43 42° 288° (WNW) 674 6.8 -15.6°
Drops below altitude 10° 10:55:57 10° 216° (SW) 1,586 9.0 -15.1°
Sets 10:58:01 0° 209° (SSW) 2,442 10.0 -14.7°
